Regional Weather Roundup
Issued by NWS

Home | Current Version | Previous Version | Text Only | Print | Product List | Glossary Off
Versions: 1 2 3 4 5 6 7 8 9 10 11 12 13 14 15 16 17 18 19 20 21 22 23 24 25 26 27 28 29 30 31 32 33 34 35 36 37 38 39 40 41 42 43 44 45 46 47 48 49 50

259
ASUS43 KLMK 270410
RWRKY
KENTUCKY REGIONAL WEATHER ROUNDUP
NATIONAL WEATHER SERVICE LOUISVILLE KY
1200 AM EDT TUE JUN 27 2017

NOTE "FAIR" INDICATES FEW OR NO CLOUDS BELOW 12,000 FEET
WITH NO SIGNIFICANT WEATHER AND/OR OBSTRUCTIONS TO VISIBILITY.

KYZ001>023-026-027-061>063-070>075-270500-
WESTERN AND SOUTH CENTRAL KENTUCKY

CITY           SKY/WX    TMP DP  RH WIND       PRES   REMARKS
PADUCAH        CLOUDY    66  58  75 W3        30.09R
HENDERSON      PTCLDY    62  55  77 CALM      30.11R
OWENSBORO      PTCLDY    67  50  54 NE3       30.11R
HOPKINSVILLE   CLOUDY    67  56  66 CALM      30.10R
BOWLING GREEN  PTCLDY    69  56  62 N3        30.11R
GLASGOW        PTCLDY    63  56  78 CALM      30.11R
$$

KYZ024-025-028>034-038-045-046-053-270500-
NORTH CENTRAL KENTUCKY

CITY           SKY/WX    TMP DP  RH WIND       PRES   REMARKS
LOUISVILLE/SDF PTCLDY    68  45  43 N5        30.09S
LOUISVILLE/LOU PTCLDY    66  49  54 CALM      30.10S
FORT KNOX      MOCLDY    59  53  81 NW3       30.09S
$$

KYZ035>037-039>044-047>052-055>060-089>105-270500-
NORTHEAST KENTUCKY

CITY           SKY/WX    TMP DP  RH WIND       PRES   REMARKS
LEXINGTON      CLOUDY    65  50  58 W3        30.11R
COVINGTON      CLOUDY    64  49  57 NW10      30.09R
FRANKFORT      CLOUDY    66  46  48 CALM      30.09R
$$

KYZ054-064>069-076>088-106>120-270500-
SOUTHEAST KENTUCKY

CITY           SKY/WX    TMP DP  RH WIND       PRES   REMARKS
JACKSON        CLOUDY    63  53  70 CALM      30.10S
LONDON         CLOUDY    61  55  81 CALM      30.11F
SOMERSET       MOCLDY    61  54  77 CALM      30.11F
MIDDLESBORO    CLEAR     58  54  86 CALM      30.14S
MONTICELLO     CLOUDY    61  58  90 W7        30.12F
$$





USA.gov is the U.S. government's official web portal to all federal, state and local government web resources and services.